COSMOS 1275 DEB

Satellite information

Favourite Embed

Satellite Type and Status

DEBRISIN ORBIT

Key statistics

Satellite COSMOS 1275 DEB at a glance.

Uptime

16105

Days in orbit

Revolutions

≈ 14.2

Per day

Orbit

LEO

Low Earth Orbit

Inclination

82.8

Latest

Satellite identification and parameters

Extended collection of information and parameters for COSMOS 1275 DEB.

Object identification

Identified? True

Debris? True

Object name: COSMOS 1275 DEB

International designator: 1981-053NM

Object number (NORAD): 39951

Object ID (CCSDS): 39951

Country: COMMONWEALTH OF INDEPENDENT STATES (CIS)

Current information (Y/N): Y

RCS size: SMALL

Orbital parameters

Period: 101.636 minutes

Inclination: 82.8241 deg

SMA: 7214.268 km

Apoapsis: 878.26 km

Periapsis: 794.006 km

RAAN: 116.6827 deg

Eccentricy: 0.0058394

Argument of periapsis: 143.7047 deg

Mean anomaly: 216.8116 deg

Mean motion: 14.1681904 rev/day

Mean motion (dot): 0.00002979 rev/day2

B* drag term: 0.0014552 1/REarth

Two-line elements (TLE)

Creation date: July 6, 2025, 6:56 a.m.

Reference frame: TEME

Reference center: EARTH

Epoch: July 6, 2025, 5:33 a.m. UTC

TLE line 0: 0 COSMOS 1275 DEB

TLE line 1: 1 39951U 81053NM 25187.23168737 .00002979 00000-0 14552-2 0 9990

TLE line 2: 2 39951 82.8241 116.6827 0058394 143.7047 216.8116 14.16819040209617

Live tracking on map

Real-time ground track for satellite COSMOS 1275 DEB.

In-orbit conjunctions

A list of the most updated potential collisions computed for object COSMOS 1275 DEB.

Target Orbit TCA Probability of collision Miss distance Type
NOAA 13 SSO 2025-03-03 20:53:36 0.0001669219 241.0 (m) PAYLOAD

Associated space launch

Navigation satellite providing location information for the Tsiklon-B navigation system

COSMOS 1275 DEB was lifted into orbit during the mission ‘Kosmos-3M | Parus 27’, on board a Kosmos-3M space rocket.

The launch took place on June 4, 1981, 3:41 p.m. from 132/2.

For more information about the launch, click the button.

Launch to space Kosmos-3M | Parus 27
Kosmos-3M | Parus 27

Agency: N/A

Status: Launch Successful

Launch date: June 4, 1981, 3:41 p.m. UTC

Rocket: Kosmos-3M

Launch pad: 132/2

Location: Plesetsk Cosmodrome, Russian Federation

...

Latest news about this satellite

There are no fresh news available about this satellite. Check back as we update our databases every day.


Newsletter sign-up

Weekly statistics, charts and insights to help you stay on top of the space industry.